Regional Weather Roundup
Issued by NWS Kansas City/Pleasant Hill, MO

Home | Current Version | Previous Version | Text Only | Print | Product List | Glossary On
Versions: 1 2 3 4 5 6 7 8 9 10 11 12 13 14 15 16 17 18 19 20 21 22 23 24 25 26 27 28 29 30 31 32 33 34 35 36 37 38 39 40 41 42 43 44 45 46 47 48 49 50
407
ASUS43 KEAX 221215
RWREAX

WEATHER ROUNDUP FOR EASTERN KANSAS AND NORTHWEST MISSOURI
NATIONAL WEATHER SERVICE KANSAS CITY/PLEASANT HILL MO
600 AM CST WED JAN 22 2020

KSZ040-057-103>105-MOZ028-029-037-043-221300-
...KANSAS CITY METROPOLITAN AREA...

CITY           SKY/WX    TMP DP  RH WIND       PRES   REMARKS
K.C. INTL      LGT RAIN  34  30  85 S12       30.05F WCI  25
6HR MIN TEMP:  33; 6HR MAX TEMP:  37; 6HR PCP:  0.03;

K.C. DOWNTOWN  LGT RAIN  34  28  79 S9        30.08F WCI  27
6HR MIN TEMP:  33; 6HR MAX TEMP:  36; 6HR PCP: TRACE;

LEES SUMMIT    CLOUDY    34  23  64 S15       30.08F WCI  24
6HR MIN TEMP:  31; 6HR MAX TEMP:  34;

OLATHE - IXD   LGT SNOW  32  29  88 S13       30.07F FOG     WCI  22
6HR MIN TEMP:  32; 6HR MAX TEMP:  34; 6HR PCP:  0.02;

OLATHE - OJC   LGT SNOW  31  29  92 S15       30.06F FOG     WCI  20
6HR MIN TEMP:  31; 6HR MAX TEMP:  33; 6HR PCP: TRACE;

LAWRENCE       LGT SNOW  33  30  88 S12       30.05F FOG     WCI  24

$$

MOZ001>008-011>017-020>025-030>033-038>040-044>046-053-054-221300-
...NORTHERN AND CENTRAL MISSOURI...

CITY           SKY/WX    TMP DP  RH WIND       PRES   REMARKS
ST. JOSEPH     LGT SNOW  34  29  82 S13       30.04F WCI  25
6HR MIN TEMP:  32; 6HR MAX TEMP:  35; 6HR PCP:  0.05;

MOSBY          CLOUDY    34  27  75 CALM      30.09F
HARRISONVILLE  CLOUDY    34  27  75 S10       30.12F WCI  26
WHITEMAN AFB   CLOUDY    31  26  80 S8        30.09F WCI  24
6HR MIN TEMP:  28; 6HR MAX TEMP:  31;

CLINTON        MOCLDY    32  23  69 S9        30.15F WCI  24
SEDALIA        MOCLDY    31  22  69 S15       30.15F WCI  20
6HR MIN TEMP:  28; 6HR MAX TEMP:  31;

MARSHALL       CLOUDY    30  23  74 W8        30.16F WCI  23
CHILLICOTHE      N/A     30  23  75 S7        30.12F WCI  23
6HR MIN TEMP:  28; 6HR MAX TEMP:  30;

KIRKSVILLE     CLEAR     28  21  75 S9        30.15F WCI  19
6HR MIN TEMP:  28; 6HR MAX TEMP:  29;


$$

MOZ041-047>049-056>058-063>065-088>090-097-221300-
...EASTERN AND SOUTHERN MISSOURI...

CITY           SKY/WX    TMP DP  RH WIND       PRES   REMARKS
ST. LOUIS INTL CLOUDY    25  18  74 SE7       30.30F WCI  17
6HR MIN TEMP:  25; 6HR MAX TEMP:  26;

SPIRIT OF STL  CLEAR     26  19  74 S3        30.29F
COLUMBIA       CLEAR     27  19  72 S10       30.20S WCI  17
JEFFERSON CITY CLEAR     28  19  69 SE8       30.23F WCI  20
MEXICO         CLEAR     27  21  80 S9        30.21S WCI  17
HANNIBAL       CLEAR     28  19  69 S9        30.21F WCI  20
ROLLA          CLEAR     26  17  68 S13       30.22F WCI  15
LEBANON        CLEAR     28  21  74 S10       30.19F WCI  19
OSAGE BEACH    CLEAR     28  21  75 S7        30.21F WCI  21
SPRINGFIELD    MOCLDY    28  20  71 SE17      30.15F WCI  16
BRANSON        PTCLDY    27  21  80 SE6       30.20F WCI  20
JOPLIN         FRZ RAIN  33  28  81 S12       30.13F WCI  24
WEST PLAINS    CLEAR     25  19  78 S6        30.26F WCI  18
SIKESTON       FAIR      27  23  86 CALM      30.38S

$$

IAZ060-094-KSZ022-034>040-054-083-096-NEZ052-066-093-221300-
...KANSAS...SOUTHEAST NEBRASKA AND IOWA...

CITY           SKY/WX    TMP DP  RH WIND       PRES   REMARKS
TOPEKA         LGT SNOW  34  31  88 S14       30.02F FOG     WCI  25
6HR MIN TEMP:  34; 6HR MAX TEMP:  38; 6HR PCP:  0.07;

MANHATTAN      RAIN      35  33  92 S14G23    29.95F WCI  26
EMPORIA        LGT SNOW  33  33 100 S17G29    29.98F FOG     WCI  22
OTTAWA         LGT SNOW  34  34 100 S16       30.04F WCI  23
CHANUTE        CLOUDY    34  31  88 S16G23    30.07F WCI  24
SALINA         FLURRIES  33  31  92 S18G26    29.91F WCI  22
WICHITA        LGT SNOW  34  31  88 S16       29.94F FOG     WCI  24
OMAHA          LGT SNOW  33  31  92 S14       29.93F WCI  23
LINCOLN        LGT SNOW  34  31  88 S15       29.90F FOG     WCI  24
FALLS CITY     CLOUDY    34  30  85 S13       29.98F WCI  25
LAMONI         CLOUDY    29  22  75 S12       30.04F WCI  19
DES MOINES     FRZ DRZL  30  23  75 S16       30.03F WCI  19

$$





USA.gov is the U.S. government's official web portal to all federal, state and local government web resources and services.